SCP
0 0 0 0 0 0 0 0 0 0 0 0 0 0 0 0 0 0 0 0 0 0 0 0 0 0 0 0 0 0 0 0 0 0 0 0 0 0 0 0 0 0 0 0 0 0 0 0 0
0 0 0 0 0 0 0 0 0 0 0 0 0 0 0 0 0 0 0 0 0 0 0 0 0 0 0 0 0 0 0 0 0 0 0 0 0 0 0 0 0 0 0 0 0 0 0 0 0
0 0 0 0 0 0 0 0 0 0 0 0 0 0 0 0 0 0 0 0 0 0 0 0 0 0 0 0 0 0 0 0 0 0 0 0 0 0 0 0 0 0 0 0 0 0 0 0 0
0 0 0 0 0 0 0 0 0 0 0 0 0 0 0 0 0 0 0 0 0 0 0 0 0 0 0 0 0 0 0 0 0 0 0 0 0 0 0 0 0 0 0 0 0 0 0 0 0
0 0 0 0 0 0 0 0 0 0 0 0 0 0 0 0 0 0 0 0 0 0 0 0 0 0 0 0 0 0 0 0 0 0 0 0 0 0 0 0 0 0 0 0 0 0 0 0 0
0 0 0 0 0 0 0 0 0 0 0 0 0 0 0 0 0 0 0 0 0 0 0 0 0 0 0 0 0 0 0 0 0 0 0 0 0 0 0 0 0 0 0 0 0 0 0 0 0
0 0 0 0 0 0 0 0 0 0 0 0 0 0 0 0 0 0 0 0 0 0 0 0 0 0 0 0 0 0 0 0 0 0 0 0 0 0 0 0 0 0 0 0 0 0 0 0 0
0 0 0 0 0 0 0 0 0 0 0 0 0 0 0 0 0 0 0 0 0 0 0 0 0 0 0 0 0 0 0 0 0 0 0 0 0 0 0 0 0 0 0 0 0 0 0 0 0
0 0 0 0 0 0 0 0 0 0 0 0 0 0 0 0 0 0 0 0 0 0 0 0 0 0 0 0 0 0 0 0 0 0 0 0 0 0 0 0 0 0 0 0 0 0 0 0 0
0 0 0 0 0 0 0 0 0 0 0 0 0 0 0 0 0 0 0 0 0 0 0 0 0 0 0 0 0 0 0 0 0 0 0 0 0 0 0 0 0 0 0 0 0 0 0 0 0
0 0 0 0 0 0 0 0 0 0 0 0 0 0 0 0 0 0 0 0 0 0 0 0 0 0 0 0 0 0 0 0 0 0 0 0 0 0 0 0 0 0 0 0 0 0 0 0 0
0 0 0 0 0 0 0 0 0 0 0 0 0 0 0 0 0 0 0 0 0 0 0 0 0 0 0 0 0 0 0 0 0 0 0 0 0 0 0 0 0 0 0 0 0 0 0 0 0
0 0 0 0 0 0 0 0 0 0 0 0 0 0 0 0 0 0 0 0 0 0 0 0 0 0 0 0 0 0 0 0 0 0 0 0 0 0 0 0 0 0 0 0 0 0 0 0 0
0 0 0 0 0 0 0 0 0 0 0 0 0 0 0 0 0 0 0 0 0 0 0 0 0 0 0 0 0 0 0 0 0 0 0 0 0 0 0 0 0 0 0 0 0 0 0 0 0
0 0 0 0 0 0 0 0 0 0 0 0 0 0 0 0 0 0 0 0 0 0 0 0 0 0 0 0 0 0 0 0 0 0 0 0 0 0 0 0 0 0 0 0 0 0 0 0 0
0 0 0 0 0 0 0 0 0 0 0 0 0 0 0 0 0 0 0 0 0 0 0 0 0 0 0 0 0 0 0 0 0 0 0 0 0 0 0 0 0 0 0 0 0 0 0 0 0
0 0 0 0 0 0 0 0 0 0 0 0 0 0 0 0 0 0 0 0 0 0 0 0 0 0 0 0 0 0 0 0 0 0 0 0 0 0 0 0 0 0 0 0 0 0 0 0 0
0 0 0 0 0 0 0 0 0 0 0 0 0 0 0 0 0 0 0 0 0 0 0 0 0 0 0 0 0 0 0 0 0 0 0 0 0 0 0 0 0 0 0 0 0 0 0 0 0
0 0 0 0 0 0 0 0 0 0 0 0 0 0 0 0 0 0 0 0 0 0 0 0 0 0 0 0 0 0 0 0 0 0 0 0 0 0 0 0 0 0 0 0 0 0 0 0 0
0 0 0 0 0 0 0 0 0 0 0 0 0 0 0 0 0 0 0 0 0 0 0 0 0 0 0 0 0 0 0 0 0 0 0 0 0 0 0 0 0 0 0 0 0 0 0 0 0
0 0 0 0 0 0 0 0 0 0 0 0 0 0 0 0 0 0 0 0 0 0 0 0 0 0 0 0 0 0 0 0 0 0 0 0 0 0 0 0 0 0 0 0 0 0 0 0 0
0 0 0 0 0 0 0 0 0 0 0 0 0 0 0 0 0 0 0 0 0 0 0 0 0 0 0 0 0 0 0 0 0 0 0 0 0 0 0 0 0 0 0 0 0 0 0 0 0
0 0 0 0 0 0 0 0 0 0 0 0 0 0 0 0 0 0 0 0 0 0 0 0 0 0 0 0 0 0 0 0 0 0 0 0 0 0 0 0 0 0 0 0 0 0 0 0 0
0 0 0 0 0 0 0 0 0 0 0 0 0 0 0 0 0 0 0 0 0 0 0 0 0 0 0 0 0 0 0 0 0 0 0 0 0 0 0 0 0 0 0 0 0 0 0 0 0
0 0 0 0 0 0 0 0 0 0 0 0 0 0 0 0 0 0 0 0 0 0 0 0 0 0 0 0 0 0 0 0 0 0 0 0 0 0 0 0 0 0 0 0 0 0 0 0 0
0 0 0 0 0 0 0 0 0 0 0 0 0 0 0 0 0 0 0 0 0 0 0 0 0 0 0 0 0 0 0 0 0 0 0 0 0 0 0 0 0 0 0 0 0 0 0 0 0
0 0 0 0 0 0 0 0 0 0 0 0 0 0 0 0 0 0 0 0 0 0 0 0 0 0 0 0 0 0 0 0 0 0 0 0 0 0 0 0 0 0 0 0 0 0 0 0 0
0 0 0 0 0 0 0 0 0 0 0 0 0 0 0 0 0 0 0 0 0 0 0 0 0 0 0 0 0 0 0 0 0 0 0 0 0 0 0 0 0 0 0 0 0 0 0 0 0
0 0 0 0 0 0 0 0 0 0 0 0 0 0 0 0 0 0 0 0 0 0 0 0 0 0 0 0 0 0 0 0 0 0 0 0 0 0 0 0 0 0 0 0 0 0 0 0 0
0 0 0 0 0 0 0 0 0 0 0 0 0 0 0 0 0 0 0 0 0 0 0 0 0 0 0 0 0 0 0 0 0 0 0 0 0 0 0 0 0 0 0 0 0 0 0 0 0
Wind_Speed
4 3 3 3 3 4 7 6 5 5 5 6 6 5 6 8 7 6 5 4 4 4 5 6 7 7 7 7 7 7 8 8 8 7 7 7 8 8 8 8 8 9 9 9 8 8 8 9 9
1 1 3 3 1 5 7 5 7 7 6 4 5 5 6 7 6 5 4 4 4 5 5 6 7 7 6 7 8 8 8 8 8 8 8 8 8 8 8 8 8 8 8 8 8 8 8 8 9
2 2 2 0 3 6 6 6 7 7 5 2 4 5 5 6 5 4 5 4 4 5 5 6 5 6 6 6 7 7 8 9 9 9 8 8 8 8 8 9 8 8 8 8 8 8 8 8 9
2 2 1 4 10 8 6 5 5 5 5 4 4 6 6 6 4 5 5 5 5 5 5 7 5 6 6 6 6 7 8 8 8 8 8 8 7 7 8 8 8 8 8 8 8 7 8 8 9
2 1 4 7 9 7 6 5 4 5 4 5 5 7 7 5 5 5 5 5 5 6 6 8 7 6 6 7 7 7 8 8 8 8 9 8 7 7 8 8 8 8 8 8 8 8 8 9 9
1 1 4 7 8 6 5 4 4 6 7 6 5 7 7 5 5 5 5 5 6 6 5 7 8 7 6 6 7 7 7 8 9 9 9 9 8 8 9 9 9 8 8 8 8 8 8 9 9
1 2 5 8 7 6 5 3 4 5 6 6 3 6 7 6 5 5 5 5 5 5 5 5 6 7 6 6 6 7 8 9 9 10 10 10 9 8 8 9 9 8 8 8 9 8 9 9 9
1 2 6 6 6 6 5 4 4 4 6 4 2 4 6 7 5 5 5 5 5 5 5 5 5 5 6 7 8 8 8 9 9 9 9 8 8 8 7 9 9 9 9 9 9 8 8 8 8
1 3 6 5 4 6 5 5 4 3 5 4 4 6 7 9 7 6 5 5 5 4 4 4 5 5 5 6 7 6 7 7 6 8 7 3 5 6 6 10 9 9 9 8 8 8 8 7 7
1 5 7 4 4 5 5 4 4 4 5 6 7 7 8 8 7 5 5 5 5 5 4 4 5 5 5 4 4 4 5 5 4 5 5 4 5 5 6 9 9 8 7 7 8 7 5 2 4
4 6 6 5 4 4 5 4 3 4 4 4 5 8 9 7 6 5 4 4 4 4 4 4 4 4 4 3 3 3 3 3 4 5 5 3 4 4 4 3 5 5 4 4 5 3 3 3 4
6 6 5 4 4 3 3 4 3 2 3 4 5 8 8 7 5 4 4 4 4 4 4 4 4 4 4 4 3 3 3 3 3 3 4 3 3 3 4 2 3 3 3 3 3 3 4 5 5
6 5 4 4 3 3 3 3 2 3 3 4 6 8 7 6 5 4 3 4 3 3 4 4 3 3 4 4 2 2 3 3 4 3 3 4 3 3 3 3 3 3 3 3 3 4 5 5 5
5 5 4 3 3 3 3 2 2 3 5 6 7 7 6 5 5 5 4 4 4 4 4 4 3 3 3 3 2 3 3 3 3 3 3 4 3 3 2 3 3 3 3 3 3 4 4 4 4
4 4 4 3 2 2 2 2 2 3 6 6 7 6 5 5 5 4 4 3 3 3 3 3 2 2 2 3 3 2 2 3 3 3 3 4 3 3 3 3 3 3 3 4 4 5 4 4 4
3 3 3 3 1 2 3 1 3 4 5 6 6 6 6 5 5 4 4 3 3 3 3 4 2 2 3 2 2 2 2 3 2 2 2 3 3 4 3 3 3 3 3 3 3 3 4 4 4
3 2 3 3 2 1 2 1 2 2 5 5 5 5 6 6 6 5 4 4 3 3 3 4 4 3 3 3 2 2 2 2 2 2 2 2 3 3 3 3 3 3 2 3 3 3 3 4 4
2 2 1 1 2 1 2 2 1 2 4 4 5 5 6 6 6 6 5 4 4 4 3 4 4 3 3 2 2 3 3 2 2 2 2 3 2 3 3 3 3 3 2 2 3 4 3 3 3
0 1 1 1 1 1 2 3 3 1 4 5 5 6 6 6 6 6 6 5 5 5 4 4 5 4 3 2 2 2 2 2 2 2 3 2 2 2 3 2 3 2 2 3 4 3 4 3 2
3 3 2 1 1 2 2 4 3 2 3 4 5 6 6 6 7 7 7 7 7 6 5 5 5 4 3 1 1 1 2 2 2 2 2 2 2 2 2 2 2 2 2 3 3 3 2 2 1
4 3 3 2 2 3 4 2 1 1 2 2 3 4 6 7 8 9 8 7 6 6 6 4 5 5 4 3 1 2 2 2 2 2 2 1 2 2 2 2 2 2 2 2 3 3 2 1 1
3 2 3 3 4 1 3 3 1 0 1 2 3 3 5 7 8 8 8 8 7 6 5 6 6 5 4 4 2 2 2 1 2 2 2 2 2 2 2 2 1 1 1 2 2 2 1 1 1
1 0 3 4 4 4 4 5 1 1 1 1 2 3 3 5 7 8 8 8 7 6 5 5 5 5 4 3 3 3 2 1 1 1 2 2 2 2 2 2 1 1 1 1 1 1 2 2 1
3 4 4 4 5 5 2 4 2 1 3 3 1 1 3 5 7 7 7 7 7 6 6 6 6 5 4 4 4 3 3 2 2 2 2 2 2 2 2 2 2 1 1 1 2 2 2 1 1
6 6 4 5 5 2 1 4 2 3 3 4 3 1 3 5 7 7 8 8 8 8 7 7 7 6 6 5 4 4 3 3 2 2 2 1 2 2 2 2 2 1 1 1 1 2 2 2 2
6 7 4 3 2 1 3 3 1 3 3 3 3 2 3 5 6 6 7 8 8 8 7 7 7 6 6 5 5 4 3 2 1 2 1 1 1 1 2 1 1 1 1 1 1 1 1 1 2
6 5 4 4 3 4 3 2 1 2 2 3 3 3 3 4 5 6 6 7 7 8 8 7 7 7 6 6 5 4 4 3 2 2 2 1 2 2 2 2 2 1 1 1 1 1 1 1 1
3 3 4 5 4 4 3 3 1 2 2 2 3 3 2 3 5 5 5 6 7 7 7 7 7 7 6 6 5 3 4 3 3 3 3 2 2 2 2 3 2 2 2 2 1 0 0 1 1
5 6 5 4 5 4 3 2 3 2 2 2 2 2 2 3 4 4 5 6 6 6 7 7 7 6 6 6 6 5 4 4 4 3 2 2 3 3 3 2 2 2 3 2 2 1 1 1 1
5 6 7 6 5 5 4 1 5 2 2 2 2 2 2 3 3 4 4 5 6 6 6 7 7 7 6 6 6 6 5 5 5 4 4 3 2 2 2 2 3 2 2 2 2 2 1 1 0
Wind_Direction
178 190 229 236 218 99 75 68 67 69 65 61 55 51 55 41 27 54 65 47 39 56 66 76 70 71 75 75 75 82 86 91 93 95 100 99 95 93 93 88 86 84 87 87 85 85 88 87 84
185 207 237 243 200 104 82 68 69 61 78 89 69 61 69 66 50 69 71 51 46 65 67 66 70 75 77 79 80 85 86 87 88 93 98 100 96 95 93 88 86 83 82 85 85 83 84 84 84
179 250 276 325 69 73 89 76 78 84 82 73 78 57 53 61 61 67 63 71 71 74 75 76 75 84 82 84 83 87 86 85 82 86 91 98 98 97 95 90 85 80 76 80 83 86 86 83 82
232 218 205 89 85 71 77 84 94 104 90 64 84 83 77 53 53 74 87 80 78 79 81 82 76 81 79 84 81 83 88 86 83 82 88 96 99 100 97 94 89 83 76 78 82 89 90 86 83
244 239 115 100 89 84 74 70 77 76 77 75 79 91 89 77 82 92 91 81 77 75 74 84 80 77 76 81 80 78 87 89 87 82 80 87 91 92 91 90 90 85 81 78 77 80 85 83 83
212 174 115 103 100 98 87 77 82 78 89 90 88 96 92 106 108 99 88 83 80 79 78 88 98 82 75 76 78 83 87 88 86 81 78 80 82 85 86 88 89 87 85 86 79 77 80 81 82
53 83 95 105 109 102 86 71 73 80 83 74 79 100 113 121 114 109 97 88 85 81 79 79 93 106 104 88 79 81 83 83 83 82 81 80 79 81 86 88 83 83 85 86 83 76 75 79 80
6 116 112 105 109 96 98 100 78 65 76 77 68 96 116 131 132 125 110 99 90 84 78 78 80 85 98 104 88 78 78 79 81 82 80 88 97 92 94 93 81 78 83 86 86 84 82 82 81
255 120 99 97 101 103 115 116 98 92 101 95 77 73 97 128 144 140 129 115 105 95 87 85 86 87 90 88 93 95 95 91 101 100 96 106 96 94 100 79 80 77 81 87 87 89 92 94 94
63 86 83 85 95 109 114 108 121 133 111 114 115 110 125 141 150 145 130 120 112 104 94 93 92 90 92 87 94 91 86 86 79 77 81 78 80 79 86 99 88 84 86 98 91 95 114 131 101
73 86 97 100 102 112 118 114 129 122 100 103 120 131 140 148 153 143 127 112 98 99 97 92 93 91 89 92 80 79 81 82 82 80 85 83 90 103 95 101 111 102 103 94 103 114 85 78 71
96 91 97 102 115 129 119 120 124 117 88 94 114 134 146 154 151 142 132 121 120 107 98 94 92 99 92 86 84 84 85 85 81 79 77 80 82 83 85 83 82 86 82 76 78 74 81 78 81
100 99 97 106 121 125 128 130 122 126 120 121 129 143 149 148 144 137 131 124 127 122 119 105 94 88 90 81 83 92 84 79 87 74 73 79 81 79 84 89 83 76 77 89 83 85 82 78 72
96 109 110 115 122 136 145 140 160 135 144 146 151 155 153 150 150 144 145 141 141 139 123 116 117 105 107 111 103 84 85 97 85 78 75 78 79 82 83 86 83 80 79 78 90 92 88 83 74
129 127 123 114 132 138 183 161 149 136 161 163 163 160 158 161 159 157 149 149 147 137 125 114 111 109 103 96 85 76 88 93 87 80 76 81 76 80 82 77 84 85 93 96 93 94 89 87 87
163 163 130 107 102 167 241 101 97 145 183 183 181 169 171 173 176 163 157 156 151 149 136 130 134 124 103 106 117 102 91 99 97 88 75 82 91 87 85 88 85 89 94 96 96 93 93 87 81
178 152 115 117 108 178 240 294 103 165 198 200 194 187 185 178 179 168 163 171 162 161 159 143 132 122 113 116 129 113 105 102 103 102 88 85 87 95 101 91 96 102 96 95 102 99 95 93 86
142 144 134 106 102 207 243 290 292 196 213 219 205 201 196 196 180 165 167 174 170 165 172 150 135 137 126 136 131 117 112 106 101 103 108 93 96 95 98 113 120 109 102 101 104 102 96 95 95
223 235 229 54 72 245 271 297 304 230 214 222 216 208 205 203 179 162 170 174 175 173 178 160 160 146 139 145 156 142 128 115 110 101 99 117 122 113 103 115 106 111 116 125 129 122 119 115 118
224 229 221 178 140 263 294 293 291 261 230 233 226 210 209 202 188 174 180 180 179 174 180 172 160 154 148 143 146 125 114 112 93 114 127 136 135 127 125 136 133 133 135 144 140 142 135 126 167
218 246 255 265 236 232 277 269 189 162 205 215 228 225 213 205 198 184 186 182 178 180 182 175 162 158 156 157 151 138 139 157 147 139 128 116 120 134 155 139 142 148 158 154 166 169 170 160 169
217 241 248 244 244 247 288 304 20 232 212 214 219 219 212 202 201 190 185 182 185 181 181 177 163 165 159 167 184 182 187 170 141 134 134 144 134 147 163 158 172 165 171 171 186 184 201 204 177
245 147 227 236 255 265 248 269 312 93 306 271 232 223 210 197 190 188 187 183 184 174 174 177 163 165 165 179 180 209 186 162 146 154 149 157 137 151 163 170 179 190 189 205 214 199 226 221 250
160 171 175 210 238 253 263 259 304 52 343 339 345 215 191 184 178 179 176 177 178 173 173 176 172 166 165 182 191 198 187 193 187 188 165 168 147 149 150 181 194 201 200 211 216 213 220 249 274
208 221 213 206 208 218 123 248 283 28 2 344 344 24 159 165 170 170 171 177 177 178 180 178 179 176 173 182 193 197 210 217 216 208 174 187 162 155 151 183 192 207 209 215 216 215 220 219 235
213 237 252 263 239 160 184 238 76 38 17 10 23 60 126 152 165 169 174 178 179 182 184 184 184 182 180 186 191 196 191 217 205 206 192 185 177 149 145 181 175 189 201 199 196 229 218 234 229
209 221 265 280 274 262 211 198 169 93 54 46 56 67 107 148 162 170 172 176 179 181 182 187 186 186 186 189 189 192 190 191 187 190 189 176 177 158 166 175 167 151 181 191 170 184 173 212 247
275 210 214 235 247 239 216 227 210 83 39 45 58 72 100 140 159 169 172 174 176 178 181 186 191 192 188 188 190 195 196 185 192 194 186 183 172 172 183 190 174 159 169 167 163 172 61 197 137
184 202 220 230 254 266 240 145 73 32 15 14 43 72 108 138 153 161 169 174 173 172 177 187 191 193 190 191 190 193 190 191 189 192 181 194 189 183 181 194 183 175 177 169 155 191 184 200 167
232 227 228 238 229 250 269 137 99 35 19 8 32 72 101 127 144 154 163 169 174 178 182 192 194 194 194 195 194 197 190 197 197 188 189 200 197 192 187 182 186 186 187 183 170 178 187 195 179